Portland, ME

11:35 PM EST on December 06, 2019 (GMT -0500)
Portland International

Weather History for KPWM - October, 2019

Change the Weather History Date:

Wednesday, October 2, 2019

  Actual Average Record
Temperature  
Mean Temperature 56 °F 54 °F  
Max Temperature 66 °F 64 °F 85 °F (1968)
Min Temperature 45 °F 44 °F 27 °F (1964)
Degree Days  
Heating Degree Days 10 11  
Month to date heating degree days 15 22  
Since 1 July heating degree days 177 243  
Cooling Degree Days 0 0  
Month to date cooling degree days 0 0  
Year to date cooling degree days 474 358  
Growing Degree Days 6 (Base 50)    
Moisture  
Dew Point 53 °F    
Average Humidity 82    
Maximum Humidity 97    
Minimum Humidity 63    
Precipitation  
Precipitation 0.06 in 0.15 in 1.86 in (1929)
Month to date precipitation 0.22 0.30  
Year to date precipitation 34.95 33.73  
Snow  
Snow - 0.00 in T in (1899)
Month to date snowfall 0.0 0.0  
Since 1 July snowfall 0.0 0.0  
Since 1 September snowfall 0.0 0.0  
Snow Depth 0.00 in    
Sea Level Pressure  
Sea Level Pressure 29.84 in    
Wind  
Wind Speed 5 mph ()    
Max Wind Speed 16 mph    
Max Gust Speed 22 mph    
Visibility 9.8 miles    
Events Rain    
T = Trace of Precipitation, MM = Missing Value Source: Averaged Metar Reports

Daily Weather History Graph

Daily Weather History Graph

Search for Another Location

Airport or City:

Astronomy

Oct. 02, 2019 Rise Set
Actual Time 6:39 AM EDT 6:20 PM EDT
Civil Twilight 6:11 AM EDT 6:49 PM EDT
Nautical Twilight 5:37 AM EDT 7:22 PM EDT
Astronomical Twilight 5:04 AM EDT 7:56 PM EDT
Moon 11:09 AM EDT (10/2) 9:04 PM EDT (10/2)
Length of Visible Light 12h 38m
Length of Day
11h 41m
Waxing Crescent, 20% of the Moon is Illuminated
Oct 2
Waxing Crescent
Oct 5
First Quarter
Oct 13
Full
Oct 21
Last Quarter
Oct 27
New

Hourly Weather History & Observations

Time (EDT) Temp. Windchill Dew Point Humidity Pressure Visibility Wind Dir Wind Speed Gust Speed Precip Events Conditions
12:51 AM 61.0 °F - 59.0 °F 93% 29.70 in 9.0 mi South 4.6 mph - 0.02 in Rain Light Rain
2:51 AM 62.1 °F - 60.1 °F 93% 29.65 in 9.0 mi WSW 3.5 mph - 0.00 in   Clear
3:51 AM 63.0 °F - 61.0 °F 93% 29.66 in 10.0 mi West 4.6 mph - N/A   Mostly Cloudy
4:51 AM 63.0 °F - 61.0 °F 93% 29.67 in 10.0 mi Calm Calm - N/A   Overcast
5:51 AM 64.0 °F - 61.0 °F 90% 29.70 in 10.0 mi NW 6.9 mph - N/A   Overcast
6:51 AM 64.0 °F - 61.0 °F 90% 29.72 in 10.0 mi North 3.5 mph - 0.00 in   Overcast
7:51 AM 64.0 °F - 62.1 °F 93% 29.73 in 10.0 mi Calm Calm - N/A   Overcast
8:51 AM 64.9 °F - 62.1 °F 90% 29.75 in 10.0 mi Calm Calm - N/A   Overcast
9:51 AM 64.9 °F - 61.0 °F 87% 29.77 in 10.0 mi Calm Calm - 0.00 in Rain Light Rain
10:51 AM 64.0 °F - 60.1 °F 87% 29.79 in 7.0 mi NE 4.6 mph - 0.02 in Rain Light Rain
11:51 AM 64.0 °F - 57.9 °F 80% 29.79 in 10.0 mi NNE 5.8 mph - 0.01 in Rain Light Rain
12:51 PM 63.0 °F - 57.9 °F 84% 29.81 in 10.0 mi North 5.8 mph - 0.01 in   Overcast
1:51 PM 60.1 °F - 55.0 °F 83% 29.82 in 10.0 mi ENE 8.1 mph - N/A   Overcast
2:51 PM 60.1 °F - 55.0 °F 83% 29.84 in 10.0 mi NE 6.9 mph - 0.00 in   Overcast
2:58 PM 60.1 °F - 54.0 °F 80% 29.84 in 10.0 mi NE 9.2 mph - N/A   Overcast
3:51 PM 57.0 °F - 51.1 °F 81% 29.87 in 10.0 mi ENE 12.7 mph - N/A   Overcast
4:47 PM 55.4 °F - 50.0 °F 82% 29.88 in 10.0 mi ENE 9.2 mph - N/A   Overcast
4:51 PM 55.9 °F - 48.9 °F 77% 29.88 in 10.0 mi ENE 11.5 mph - N/A   Overcast
5:51 PM 55.0 °F - 46.9 °F 74% 29.93 in 10.0 mi ENE 11.5 mph - N/A   Overcast
6:51 PM 54.0 °F - 45.0 °F 72% 29.96 in 10.0 mi NNE 10.4 mph - N/A   Overcast
7:51 PM 53.1 °F - 43.0 °F 69% 30.00 in 10.0 mi NNE 9.2 mph - N/A   Overcast
8:51 PM 51.1 °F - 39.0 °F 63% 30.03 in 10.0 mi NNE 11.5 mph - N/A   Overcast
9:51 PM 50.0 °F - 39.0 °F 66% 30.06 in 10.0 mi NNE 8.1 mph - N/A   Mostly Cloudy
10:51 PM 46.9 °F - 37.9 °F 71% 30.09 in 10.0 mi North 4.6 mph - N/A   Mostly Cloudy
11:51 PM 45.0 °F 41.2 °F 37.9 °F 76% 30.11 in 10.0 mi NNE 6.9 mph - N/A   Mostly Cloudy